Weather History for Blackpool, United Kingdom

Change the Weather History Date:

Thursday, November 3, 2011

  Actual Average Record
Temperature  
Mean Temperature 58 °F -  
Max Temperature 60 °F 47 °F 60 °F (2011)
Min Temperature 55 °F 41 °F 30 °F (2006)
Degree Days  
Heating Degree Days 8    
Growing Degree Days 8 (Base 50)    
Moisture  
Dew Point 55 °F    
Average Humidity 90    
Maximum Humidity 100    
Minimum Humidity 73    
Precipitation  
Precipitation 0.02 in - - ()
Sea Level Pressure  
Sea Level Pressure 29.19 in    
Wind  
Wind Speed 14 mph ()    
Max Wind Speed 21 mph    
Max Gust Speed -    
Visibility 6.1 miles    
Events Rain    
Averages and records for this station are not official NWS values.
T = Trace of Precipitation, MM = Missing Value Source: Averaged Metar Reports

Daily Weather History Graph

Daily Weather History Graph

Search for Another Location

Airport:

Trip Planner

Search our weather history database for the weather conditions in past years. The results will help you decide how hot, cold, wet, or windy it might be!

Date:

Astronomy

Nov. 03, 2011 Rise Set
Actual Time 7:15 AM GMT 4:35 PM GMT
Civil Twilight 6:37 AM GMT 5:12 PM GMT
Nautical Twilight 5:55 AM GMT 5:54 PM GMT
Astronomical Twilight 5:14 AM GMT 6:35 PM GMT
Moon 1:46 PM GMT (11/3) No Moon Set
Length of Visible Light 10h 35m
Length of Day
9h 20m
First Quarter, 58% of the Moon is Illuminated
Nov 3
First Quarter
Nov 10
Full
Nov 18
Last Quarter
Nov 25
New
Dec 2
First Quarter

Hourly Weather History & Observations

Time (GMT) Temp. Dew Point Humidity Pressure Visibility Wind Dir Wind Speed Gust Speed Precip Events Conditions
2:50 AM 57 °F 54 °F 87%  in - SE 17.3 mph - -  
5:50 AM 56 °F 54 °F 93%  in - SE 13.8 mph - -  
6:20 AM 55.4 °F 55.4 °F 100% 29.24 in 6.2 mi ESE 13.8 mph - N/A Rain Light Rain Showers
6:50 AM 55.4 °F 55.4 °F 100% 29.24 in 6.2 mi ESE 13.8 mph - N/A   Partly Cloudy
7:20 AM 55.4 °F 55.4 °F 100% 29.24 in 6.2 mi SE 11.5 mph - N/A   Partly Cloudy
7:50 AM 55.4 °F 55.4 °F 100% 29.24 in 6.2 mi ESE 16.1 mph - N/A   Partly Cloudy
8:20 AM 55.4 °F 53.6 °F 94% 29.21 in 6.2 mi ESE 15.0 mph - N/A   Partly Cloudy
8:50 AM 56 °F 54 °F 90%  in - SE 16.1 mph - -  
9:20 AM 57.2 °F 55.4 °F 94% 29.21 in 6.2 mi ESE 18.4 mph - N/A   Partly Cloudy
9:50 AM 59.0 °F 55.4 °F 88% 29.21 in 6.2 mi ESE 16.1 mph - N/A   Partly Cloudy
10:20 AM 59.0 °F 55.4 °F 88% 29.21 in 6.2 mi ESE 12.7 mph - N/A   Partly Cloudy
10:50 AM 59.0 °F 55.4 °F 88% 29.24 in 6.2 mi ESE 11.5 mph - N/A   Partly Cloudy
11:20 AM 59.0 °F 55.4 °F 88% 29.21 in 6.2 mi ESE 13.8 mph - N/A   Partly Cloudy
11:50 AM 60 °F 54 °F 73%  in - SSE 17.3 mph - -  
11:50 AM 60.8 °F 55.4 °F 82% 29.21 in 6.2 mi SE 16.1 mph - N/A   Partly Cloudy
12:20 PM 59.0 °F 55.4 °F 88% 29.21 in 6.2 mi SE 20.7 mph - N/A   Mostly Cloudy
12:50 PM 59.0 °F 55.4 °F 88% 29.18 in 6.2 mi ESE 18.4 mph - N/A   Scattered Clouds
1:20 PM 60.8 °F 55.4 °F 82% 29.18 in 6.2 mi ESE 19.6 mph - N/A   Scattered Clouds
1:50 PM 60.8 °F 55.4 °F 82% 29.18 in 6.2 mi SE 17.3 mph - N/A   Scattered Clouds
2:20 PM 59.0 °F 55.4 °F 88% 29.15 in 6.2 mi SE 16.1 mph - N/A   Partly Cloudy
2:50 PM 59.0 °F 55.4 °F 88% 29.15 in 6.2 mi ESE 16.1 mph - N/A Rain Light Rain Showers
3:20 PM 59.0 °F 57.2 °F 94% 29.15 in 6.2 mi ESE 15.0 mph - N/A   Scattered Clouds
3:50 PM 59.0 °F 57.2 °F 94% 29.15 in 6.2 mi ESE 12.7 mph - N/A   Scattered Clouds
4:20 PM 59.0 °F 57.2 °F 94% 29.15 in 6.2 mi SE 15.0 mph - N/A   Partly Cloudy
4:50 PM 59.0 °F 55.4 °F 88% 29.15 in 6.2 mi ESE 12.7 mph - N/A   Partly Cloudy
5:20 PM 57.2 °F 55.4 °F 94% 29.15 in 6.2 mi SE 11.5 mph - N/A   Partly Cloudy
5:50 PM 57 °F 53 °F 84%  in - SSE 16.1 mph - -  
5:50 PM 57.2 °F 55.4 °F 94% 29.18 in 6.2 mi SE 16.1 mph - N/A   Partly Cloudy
6:20 PM 57.2 °F 55.4 °F 94% 29.18 in 6.2 mi SE 16.1 mph - N/A   Partly Cloudy
6:50 PM 57.2 °F 55.4 °F 94% 29.18 in 6.2 mi SE 15.0 mph - N/A   Partly Cloudy
7:20 PM 57.2 °F 53.6 °F 88% 29.18 in 6.2 mi SE 18.4 mph - N/A   Partly Cloudy
7:50 PM 57.2 °F 53.6 °F 88% 29.18 in 6.2 mi SSE 15.0 mph - N/A   Partly Cloudy
8:20 PM 57.2 °F 53.6 °F 88% 29.21 in 6.2 mi SSE 11.5 mph - N/A Rain Rain Showers
8:50 PM 56 °F 53 °F 88%  in - South 6.9 mph - -  
8:50 PM 55.4 °F 53.6 °F 94% 29.21 in 4.3 mi South 5.8 mph - N/A Rain Rain Showers